Home   Weather   Moga   Past weeks

Flag for India Past Weather in Moga, Punjab, India — Yesterday and Last 2 Weeks

Now
54 °F

Fog.


Feels Like: 54 °F
Forecast: 48 / 78 °F
Wind: No wind

Location: Amritsar Airport

Current Time: Dec 8, 2016 at 9:35:50 am

Latest Report: Dec 8, 2016 at 9:00 am


Visibility: 0 mi

Pressure: 30.07 "Hg

Humidity: 100%

Dew Point: 54 °F

Location of MogaLocation

Past Weather in Moga — Graph

°F

Moga Temperature Yesterday

Maximum temperature yesterday: 75 °F (at 2:00 pm)
Minimum temperature yesterday: 48 °F (at 5:00 am)
Average temperature yesterday: 60 °F

High & Low Weather Summary for the Past Weeks

 TemperatureHumidityPressure
High82 °F (Nov 25, 3:00 pm)100% (Nov 23, 7:30 am)30.18 "Hg (Nov 23, 7:30 am)
Low45 °F (Nov 28, 7:30 am)17% (Nov 28, 2:30 pm)29.89 "Hg (Nov 28, 3:30 pm)
Average62 °F73%30.03 "Hg
* Reported Nov 23 7:30 am — Dec 8 8:00 am, Moga, Weather by CustomWeather, © 2016

Note: Actual official high and low records may vary slightly from our data, if they occured in-between our weather recording intervals... More about our weather records

Advertising

Moga Weather History for the Previous 24 Hours

Scroll right to see more
 ConditionsComfort  
Time TempWeatherWind HumidityBarometerVisibility
8:00 am
Thu, Dec 8
54 °FFog.2 mph100%30.04 "Hg0 mi
7:00 am50 °FFog.No wind100%30.04 "Hg0 mi
6:30 am50 °FFog.No wind100%30.01 "Hg0 mi
6:01 am50 °FFog.No wind100%30.01 "Hg0 mi
5:30 am50 °FFog.No wind100%30.01 "Hg0 mi
5:00 am50 °FFog.No wind100%30.01 "Hg0 mi
4:00 am52 °FFog.No wind100%30.01 "Hg0 mi
3:30 am52 °FFog.2 mph100%30.01 "Hg0 mi
3:00 am52 °FFog.No wind100%30.01 "Hg0 mi
2:30 am54 °FFog.No wind100%30.01 "Hg0 mi
2:00 am54 °FFog.No wind100%30.01 "Hg0 mi
1:30 am54 °FFog.No wind100%30.04 "Hg0 mi
1:00 am55 °FFog.No wind100%30.04 "Hg0 mi
12:30 am55 °FFog.No wind100%30.04 "Hg0 mi
12:00 am57 °FFog.No wind100%30.04 "Hg0 mi
11:30 pm
Wed, Dec 7
57 °FFog.No wind100%30.04 "Hg0 mi
11:00 pm57 °FFog.No wind100%30.04 "Hg0 mi
10:30 pm59 °FFog.No wind100%30.04 "Hg0 mi
10:00 pm59 °FFog.No wind100%30.04 "Hg0 mi
9:30 pm59 °FFog.No wind100%30.04 "Hg1 mi
9:00 pm61 °FFog.No wind100%30.04 "Hg1 mi
8:00 pm63 °FFog.No wind100%30.01 "Hg1 mi
7:30 pm64 °FFog.No wind100%30.01 "Hg1 mi
7:00 pm64 °FFog.No wind100%30.01 "Hg1 mi
6:30 pm66 °FFog.No wind94%30.01 "Hg1 mi
5:30 pm68 °FHaze.No wind78%29.98 "Hg1 mi
5:00 pm72 °FHaze.No wind61%29.98 "Hg1 mi
4:30 pm73 °FHaze.No wind53%29.98 "Hg1 mi
4:00 pm75 °FHaze.No wind50%29.98 "Hg1 mi
3:30 pm75 °FHaze.No wind50%29.98 "Hg1 mi
3:00 pm75 °FHaze.2 mph54%30.01 "Hg1 mi
2:30 pm75 °FHaze.3 mph54%30.01 "Hg1 mi
2:00 pm75 °FHaze.2 mph57%30.04 "Hg1 mi
12:30 pm73 °FHaze.No wind61%30.07 "Hg1 mi
12:00 pm70 °FFog.No wind83%30.09 "Hg1 mi
11:30 am70 °FFog.No wind83%30.09 "Hg1 mi
11:00 am66 °FFog.No wind100%30.09 "Hg1 mi
10:30 am64 °FFog.No wind100%30.09 "Hg1 mi
10:00 am59 °FFog.No wind100%30.09 "Hg1 mi
9:30 am55 °FFog.No wind100%30.09 "Hg1 mi
9:00 am52 °FFog.No wind100%30.09 "Hg0 mi
Weather by CustomWeather, © 2016

See weather overviewHow to use our weather pages